Retour au catalogue

YAOGAN-40 01A

ActifMilitairePO
NORAD 57830·PAYLOAD·🇨🇳 China

Lancé Sep 10, 2023 depuis Taiyuan Satellite Launch Center

Loading…

Prochains Passages (prochaines 24 heures)

TLE

FraisSource: Space-Track

Époque: Sep 14, 2026, 15:02 UTC

1 57830U 23139A   26257.62707065  .00000102  00000-0  45136-4 0  9992
2 57830  85.9918 219.8136 0001980  84.3391 275.8018 14.12462669155329

Suivez YAOGAN-40 01A en temps réel avec AllMySat

Download on the App Store